Flag for United Kingdom Weather past 2 weeks in Belfast, Northern Ireland, United Kingdom

Now
66 °F

Broken clouds.


Feels Like: 66 °F
Forecast: 57 / 65 °F
Wind: 9 mph from Northwest

Location: Belfast / Harbour

Current Time: Jul 28, 2014 at 7:40:45 PM

Latest Report: Jul 28, 2014 at 7:20 PM


Visibility: N/A

Pressure: 30.09 "Hg

Humidity: 73%

Dew point: 57 °F

Location of BelfastLocation

Historic Weather in Belfast — Graph

°F

Belfast temperature yesterday

Maximum temperature yesterday: 64 °F (at 11:50 AM)
Minimum temperature yesterday: 57 °F (at 6:20 AM)
Average temperature yesterday: 60 °F

Past Weeks' High & Low Weather Summary

 TemperatureHumidityPressure
High81 °F (Jul 25, 4:20 PM)100% (Jul 19, 6:20 AM)30.24 "Hg (Jul 19, 6:20 AM)
Low52 °F (Jul 15, 5:50 AM)39% (Jul 25, 4:20 PM)29.65 "Hg (Jul 14, 3:50 PM)
Average66 °F74%30.00 "Hg
* Reported Jul 13 6:20 PM — Jul 28 6:20 PM, Belfast, Weather by CustomWeather, © 2014

Note: Actual official high and low records may vary slightly from our data, if they occured in-between our weather recording intervals... More about our weather records

Advertising

Belfast weather history for previous 24 hours

 ConditionsComfort  
Time TempWeatherWind HumidityBarometerVisibility
6:20 PM
Jul 28
66 °FScattered clouds.7 mph73%30.07 "HgN/A
5:50 PM68 °FScattered clouds.7 mph69%30.09 "HgN/A
5:20 PM66 °FScattered clouds.9 mph73%30.09 "HgN/A
4:50 PM70 °FScattered clouds.9 mph64%30.09 "HgN/A
4:20 PM68 °FScattered clouds.8 mph69%30.09 "HgN/A
3:50 PM70 °FScattered clouds.9 mph69%30.09 "HgN/A
3:20 PM72 °FScattered clouds.9 mph65%30.09 "HgN/A
2:50 PM70 °FScattered clouds.9 mph69%30.09 "HgN/A
2:20 PM70 °FScattered clouds.7 mph69%30.09 "HgN/A
1:50 PM70 °FScattered clouds.8 mph69%30.09 "HgN/A
1:20 PM68 °FScattered clouds.6 mph69%30.09 "HgN/A
12:50 PM66 °FScattered clouds.6 mph73%30.09 "HgN/A
12:20 PM66 °FScattered clouds.6 mph73%30.09 "HgN/A
11:50 AM66 °FScattered clouds.5 mph73%30.09 "HgN/A
11:20 AM66 °FScattered clouds.6 mph73%30.07 "HgN/A
10:50 AM66 °FScattered clouds.9 mph73%30.07 "HgN/A
10:20 AM63 °FScattered clouds.7 mph77%30.07 "HgN/A
9:50 AM63 °FScattered clouds.5 mph77%30.07 "HgN/A
9:20 AM63 °FScattered clouds.5 mph77%30.07 "HgN/A
8:50 AM63 °FScattered clouds.3 mph77%30.07 "HgN/A
8:20 AM61 °FScattered clouds.5 mph83%30.07 "HgN/A
7:50 AM59 °FScattered clouds.8 mph88%30.07 "HgN/A
7:20 AM59 °FPassing clouds.9 mph88%30.07 "HgN/A
6:50 AM59 °FPassing clouds.7 mph82%30.04 "HgN/A
6:20 AM57 °FPassing clouds.8 mph88%30.04 "HgN/A
9:20 PM
Jul 27
61 °FBroken clouds.6 mph83%29.98 "HgN/A
8:50 PM61 °FBroken clouds.No wind83%29.98 "HgN/A
8:20 PM61 °FBroken clouds.6 mph88%29.98 "HgN/A
7:50 PM61 °FScattered showers. Broken clouds.6 mph88%29.95 "HgN/A
7:20 PM61 °FSprinkles. Broken clouds.9 mph88%29.95 "Hg6 mi
Weather by CustomWeather, © 2014

See weather overviewHow to use our weather pages